User: anonymous
Location: Mason Neck State Park
(38.6428°N, 77.1981°W)
Time: 03:03:29
(UTC-04:00)
Language:

Cosmos 1400 Rocket - Orbit

View from above orbital plane
View from above orbital plane
View from above satellite
View from above satellite

Ground track
Ground track

The orbit data is extracted from the following two-line orbital elements,

1 13403U 82079B   14244.76469876  .00001772  00000-0  12585-3 0  6476
2 13403 081.1735 355.2863 0036512 034.4927 325.8653 15.03701277743320
Epoch (UTC): 01 September 2014 18:21:09
Eccentricity: 0.0036512
inclination: 81.1735°
perigee height: 530 km
apogee height: 581 km
right ascension of ascending node: 355.2863°
argument of perigee: 34.4927°
revolutions per day: 15.03701277
mean anomaly at epoch: 325.8653°
orbit number at epoch: 74332

The dashed part of the orbit path shows where the satellite is in the earth's shadow,  

DLR